Total_Precipitation_Accumulation
0.16 0.44 0.84 1.29 2.25 2.44 1.68 1.00 0.76 0.65 0.64 0.57 0.51 0.54 0.75 1.15 1.71 2.53 2.27 1.64 1.54 1.68 1.91 2.24 2.41 2.18 2.02 1.91 2.04 2.04 1.93 1.87 1.80 1.75 1.64 1.59 1.47 1.25 1.10 1.05 1.06 1.11 1.08 0.94 0.97 0.99 0.94 1.03 1.19
0.36 0.68 0.98 1.59 2.30 1.82 1.30 0.87 0.72 0.54 0.50 0.52 0.61 0.69 0.68 0.86 0.87 1.22 1.74 1.75 1.30 1.37 1.70 1.74 2.07 2.01 1.89 1.82 1.91 1.85 1.75 1.64 1.70 1.61 1.50 1.45 1.43 1.21 0.98 0.94 0.99 1.01 0.97 0.96 1.00 1.01 1.00 1.02 1.11
0.57 0.78 1.15 1.77 1.63 1.04 0.81 0.61 0.49 0.50 0.50 0.60 0.71 0.77 0.82 0.97 0.92 1.27 1.61 1.43 1.23 1.26 1.53 1.81 1.95 1.79 1.73 1.64 1.68 1.64 1.59 1.57 1.65 1.55 1.45 1.36 1.29 1.15 0.98 0.91 0.93 0.94 0.95 0.92 0.97 1.07 1.08 1.06 1.09
0.67 0.93 1.10 1.34 1.07 0.54 0.34 0.35 0.36 0.53 0.70 0.85 0.90 0.96 0.99 0.96 0.96 1.24 1.44 1.20 1.11 1.07 1.18 1.51 1.68 1.59 1.59 1.50 1.44 1.53 1.55 1.58 1.60 1.53 1.38 1.38 1.32 1.24 1.04 0.91 0.90 0.95 1.00 1.01 1.03 1.14 1.16 1.05 1.07
0.67 1.04 1.34 1.08 0.68 0.40 0.26 0.25 0.40 0.58 0.76 0.87 0.96 1.19 1.44 1.30 1.04 1.19 1.22 1.11 1.01 1.02 1.08 1.30 1.56 1.47 1.43 1.38 1.35 1.45 1.51 1.52 1.48 1.46 1.26 1.29 1.30 1.19 1.01 0.94 0.91 0.88 0.95 1.05 1.09 1.14 1.13 1.10 1.15
0.81 1.16 1.14 0.81 0.49 0.30 0.28 0.30 0.40 0.55 0.72 0.90 1.22 1.46 1.77 1.73 1.47 1.35 1.20 1.28 1.18 1.00 1.03 1.25 1.53 1.47 1.41 1.39 1.40 1.51 1.56 1.42 1.35 1.34 1.20 1.14 1.17 1.12 1.04 1.00 0.98 0.89 0.94 1.08 1.12 1.11 1.05 1.08 1.21
0.94 0.97 0.74 0.56 0.44 0.32 0.29 0.31 0.39 0.56 0.75 1.03 1.34 1.58 1.77 1.90 1.76 1.55 1.40 1.48 1.59 1.34 1.29 1.34 1.37 1.37 1.43 1.59 1.66 1.69 1.62 1.41 1.33 1.33 1.21 1.09 1.05 1.05 1.01 1.07 1.07 1.01 1.04 1.13 1.20 1.16 1.14 1.17 1.28
0.57 0.66 0.50 0.36 0.43 0.38 0.27 0.28 0.41 0.63 0.84 1.04 1.28 1.51 1.84 1.74 1.64 1.72 1.97 2.18 2.28 2.12 1.94 1.69 1.53 1.60 1.48 1.55 1.76 1.85 1.57 1.37 1.32 1.36 1.28 1.21 1.24 1.24 1.27 1.23 1.21 1.27 1.37 1.42 1.47 1.38 1.32 1.40 1.47
0.37 0.54 0.44 0.29 0.30 0.33 0.25 0.28 0.38 0.46 0.68 0.95 1.16 1.29 1.34 1.40 1.64 1.97 2.43 2.64 2.54 2.58 2.38 2.10 1.89 1.70 1.70 1.70 1.76 2.01 1.76 1.54 1.62 1.80 1.75 1.81 2.13 1.99 2.03 1.64 1.58 1.72 1.88 1.97 2.01 1.95 1.82 1.73 1.66
0.34 0.42 0.25 0.15 0.13 0.16 0.19 0.27 0.35 0.52 1.00 1.59 1.56 1.26 1.13 1.38 1.72 2.00 2.38 2.80 2.48 2.61 2.32 2.18 2.16 1.84 1.79 1.89 2.27 2.69 2.29 2.11 2.18 2.42 2.32 2.64 2.70 2.56 1.90 1.89 2.17 2.35 2.66 2.78 2.81 2.84 2.50 2.15 1.99
0.23 0.20 0.13 0.07 0.06 0.06 0.10 0.19 0.28 0.58 1.12 1.81 1.99 1.56 1.43 1.58 1.93 1.95 2.30 2.71 2.63 2.50 2.38 2.13 2.39 2.14 2.19 2.51 2.59 2.75 2.79 2.64 2.62 2.67 2.65 2.90 2.62 2.29 2.17 2.50 2.87 3.11 3.24 3.38 3.40 3.33 2.80 2.76 2.98
0.13 0.10 0.07 0.05 0.05 0.05 0.15 0.24 0.35 0.50 1.00 1.31 1.30 1.22 1.37 1.63 1.97 2.16 2.33 2.76 2.67 2.43 2.40 2.42 2.55 2.60 2.77 2.78 2.67 2.56 2.34 2.31 2.45 2.61 2.56 2.72 2.83 2.82 2.77 2.97 3.09 3.35 3.70 4.06 3.95 3.95 3.63 3.57 3.34
0.10 0.11 0.11 0.10 0.08 0.10 0.16 0.22 0.35 0.54 0.72 0.81 0.79 0.98 1.40 1.72 2.16 2.52 2.94 3.27 3.19 3.02 2.92 3.00 3.17 3.12 3.06 3.04 2.78 2.38 2.20 2.05 2.09 2.22 2.32 2.27 2.61 2.91 2.92 2.79 2.86 2.81 3.04 3.46 4.04 3.96 4.12 4.04 3.64
0.08 0.09 0.11 0.14 0.11 0.15 0.17 0.20 0.40 0.67 0.70 0.75 0.91 1.16 1.56 2.00 2.40 2.68 3.52 4.02 4.10 3.97 3.80 3.66 3.76 3.37 3.13 3.05 2.79 2.56 2.25 2.23 2.12 2.04 1.96 2.14 2.39 2.69 2.66 2.64 2.87 2.89 2.81 2.96 3.45 3.59 3.99 3.96 3.59
0.13 0.16 0.17 0.18 0.12 0.13 0.18 0.41 0.60 0.71 0.90 0.95 1.12 1.33 1.66 2.23 2.70 3.20 3.83 4.62 4.94 5.09 4.71 4.14 3.88 3.60 3.38 3.21 2.86 2.53 2.37 2.19 2.29 2.25 2.06 2.09 2.20 2.41 2.40 2.51 2.52 2.56 2.46 2.55 2.78 2.97 3.25 3.22 3.09
0.19 0.32 0.41 0.23 0.15 0.14 0.23 0.70 0.83 0.68 1.02 1.38 1.32 1.57 1.96 2.49 2.96 3.65 4.41 5.24 5.73 5.87 5.33 4.61 3.89 3.95 3.86 3.62 3.02 2.58 2.39 2.32 2.28 2.19 2.00 1.84 1.94 1.94 2.04 2.08 2.05 2.06 1.91 2.02 2.41 2.48 2.74 2.93 2.96
0.21 0.31 0.38 0.32 0.19 0.18 0.27 0.71 0.89 0.70 0.93 1.25 1.47 1.70 2.11 2.49 2.82 3.45 4.10 4.92 5.51 5.99 5.83 5.23 5.07 4.86 4.21 3.53 2.97 2.59 2.38 2.33 2.12 2.06 1.99 1.85 1.72 1.77 1.93 2.05 2.07 1.75 1.74 1.83 1.71 2.18 2.44 2.66 2.69
0.25 0.23 0.30 0.38 0.27 0.27 0.36 0.58 0.85 0.88 1.12 1.44 1.57 1.68 1.94 2.13 2.45 2.92 3.41 3.88 4.47 4.95 4.87 4.83 4.98 4.56 3.95 3.35 2.93 2.68 2.43 2.15 1.98 1.92 1.96 1.90 1.84 1.87 2.13 1.94 1.83 1.64 1.90 2.13 2.20 2.53 2.47 2.38 2.41
0.17 0.18 0.27 0.33 0.28 0.34 0.48 0.62 0.83 1.00 1.28 1.55 1.54 1.49 1.57 1.81 2.08 2.33 2.69 3.06 3.27 3.46 3.56 3.87 4.09 3.83 3.38 3.01 2.56 2.40 2.34 2.10 1.90 1.83 1.68 1.83 1.81 2.05 2.31 2.02 2.28 1.98 1.96 2.08 2.10 2.31 2.27 2.05 1.99
0.13 0.15 0.26 0.34 0.29 0.33 0.48 0.78 0.94 1.02 1.07 1.21 1.33 1.25 1.35 1.66 1.71 1.80 1.96 2.28 2.42 2.66 2.95 3.28 3.51 3.34 2.80 2.60 2.43 2.33 2.26 2.09 2.04 1.96 1.97 1.78 1.78 2.00 2.03 2.31 2.07 2.07 2.17 2.18 2.26 2.40 2.38 2.11 2.04
0.12 0.13 0.19 0.28 0.32 0.41 0.53 1.10 1.17 1.02 0.92 0.85 1.03 1.10 1.10 1.29 1.43 1.49 1.53 1.62 1.94 2.47 2.66 2.55 2.78 2.95 2.69 2.58 2.50 2.41 2.37 2.17 2.21 2.15 2.07 1.73 1.63 1.68 1.85 1.97 1.96 2.16 1.95 2.26 2.49 2.44 2.52 2.49 2.26
0.11 0.10 0.11 0.16 0.25 0.54 0.64 1.19 1.23 1.06 1.05 0.85 0.83 0.89 0.84 0.81 1.00 1.18 1.21 1.29 1.48 1.76 2.06 2.35 2.61 2.73 2.64 2.50 2.27 2.12 1.95 1.89 1.89 1.90 1.91 1.78 1.71 1.63 1.71 1.81 2.04 2.20 1.96 2.43 2.08 2.21 2.44 2.60 2.38
0.05 0.06 0.08 0.14 0.25 0.48 0.61 1.00 1.21 1.05 1.21 0.93 0.66 0.56 0.51 0.48 0.59 0.79 0.93 1.06 1.13 1.28 1.66 2.15 2.56 2.78 2.61 2.30 2.12 2.15 1.99 1.94 1.87 1.81 2.04 1.91 1.80 1.67 1.57 1.80 2.05 2.15 2.02 2.17 2.23 2.52 2.38 2.33 2.30
0.03 0.06 0.16 0.29 0.45 0.83 0.79 0.84 1.13 0.89 0.73 0.57 0.45 0.36 0.36 0.39 0.44 0.56 0.69 0.89 0.99 1.07 1.32 1.72 2.08 2.31 2.32 2.17 2.08 2.14 2.17 2.15 2.01 1.83 1.84 1.71 1.69 1.64 1.58 1.80 2.07 2.02 2.02 2.18 2.17 2.30 2.29 2.36 2.43
0.03 0.07 0.30 0.56 0.81 0.98 0.63 0.81 1.15 0.73 0.57 0.45 0.37 0.34 0.33 0.32 0.45 0.58 0.67 0.78 0.80 0.83 1.02 1.34 1.56 1.74 1.94 2.04 2.05 2.02 2.14 2.18 1.97 1.76 1.74 1.73 1.57 1.52 1.58 1.73 2.01 1.96 2.01 2.06 2.24 2.27 2.24 2.30 2.33
0.04 0.06 0.16 0.28 0.40 0.57 0.63 1.28 1.16 0.59 0.45 0.37 0.33 0.32 0.32 0.32 0.40 0.56 0.68 0.72 0.71 0.72 0.90 1.08 1.28 1.51 1.76 1.92 2.00 1.98 1.93 1.81 1.76 1.87 1.78 1.75 1.70 1.63 1.58 1.74 1.77 1.79 1.88 1.95 2.38 2.18 2.11 2.21 2.15
0.05 0.05 0.08 0.12 0.15 0.41 0.76 0.95 0.71 0.39 0.38 0.40 0.35 0.36 0.37 0.43 0.55 0.64 0.78 0.82 0.72 0.73 0.87 0.95 1.12 1.32 1.47 1.71 1.89 1.84 1.84 1.72 1.71 1.77 1.71 1.66 1.80 1.76 1.69 1.64 1.68 1.75 1.91 2.10 2.29 2.18 2.22 2.33 2.11
0.05 0.04 0.07 0.08 0.14 0.31 0.61 0.85 0.90 0.60 0.46 0.41 0.40 0.42 0.43 0.52 0.72 0.84 0.81 0.84 0.80 0.80 0.90 0.97 1.09 1.20 1.26 1.41 1.50 1.42 1.64 1.69 1.82 1.79 1.69 1.62 1.61 1.65 1.70 1.75 1.73 1.82 1.93 2.13 2.30 2.29 2.43 2.48 2.30
0.07 0.05 0.05 0.06 0.08 0.20 0.47 0.66 0.65 0.59 0.56 0.43 0.40 0.47 0.55 0.56 0.73 0.86 0.83 0.81 0.76 0.79 0.85 0.88 1.02 1.13 1.17 1.31 1.40 1.48 1.58 1.66 1.72 1.73 1.71 1.69 1.69 1.72 1.73 1.81 1.84 1.86 1.91 2.09 2.25 2.15 2.39 2.49 2.52
0.09 0.10 0.10 0.09 0.08 0.12 0.24 0.39 0.37 0.43 0.50 0.42 0.43 0.54 0.64 0.50 0.57 0.78 0.85 0.89 0.70 0.73 0.79 0.82 0.92 1.04 1.10 1.28 1.45 1.54 1.71 1.75 1.68 1.67 1.84 1.87 1.85 1.84 1.83 1.89 2.00 1.98 2.00 2.12 2.11 1.98 2.08 2.25 2.43